Location: Catanzaro
(38.9000°N, 16.5830°E)
Time: 09:58:39
(UTC+02:00)

ISS - Visible Passes

Search period start: 08 May 2021 00:00
Search period end: 18 May 2021 00:00
Orbit: 418 x 421 km, 51.6° (Epoch: 08 May)

Date Brightness Start Highest point End Pass type
(mag) Time Alt. Az. Time Alt. Az. Time Alt. Az.
08 May -0.7 02:49:24 12° NNW 02:49:43 12° NNW 02:51:08 10° NNE visible
08 May -0.5 04:27:15 10° N 04:27:46 10° N 04:28:17 10° NNE visible
09 May -0.3 02:03:26 12° N 02:03:26 12° N 02:04:03 10° NNE visible
09 May -0.9 05:15:30 10° NNW 05:17:56 18° NNE 05:20:22 10° ENE visible
10 May -0.7 04:28:22 10° NNW 04:30:16 14° NNE 04:32:12 10° NE visible
11 May -0.3 02:04:21 10° NNW 02:04:31 10° N 02:05:12 10° N visible
11 May -0.5 03:41:16 10° N 03:42:35 12° NNE 03:43:53 10° NE visible
11 May -2.0 05:17:00 10° NW 05:20:10 36° NNE 05:23:19 10° E visible
12 May -0.3 02:54:20 10° N 02:54:51 10° N 02:55:22 10° NNE visible
12 May -1.3 04:29:45 10° NNW 04:32:37 25° NNE 04:35:28 10° E visible
13 May -0.8 03:42:34 10° NNW 03:45:01 18° NNE 03:47:26 10° ENE visible
14 May -0.5 02:55:26 10° NNW 02:57:21 14° NNE 02:59:16 10° NE visible
14 May -3.1 04:31:23 10° NW 04:34:43 60° NE 04:38:03 10° ESE visible
14 May -3.3 21:13:50 10° SSW 21:16:58 38° SE 21:20:08 10° ENE visible
14 May -1.5 22:50:58 10° W 22:53:51 26° NNW 22:55:40 17° NNE visible
15 May -0.1 00:30:56 10° NNW 00:31:36 10° N 00:32:15 10° N visible
15 May -0.3 02:08:20 10° N 02:09:39 12° NNE 02:10:58 10° NE visible
15 May -2.1 03:44:04 10° NW 03:47:14 36° NNE 03:50:23 10° E visible
15 May -2.5 20:27:01 10° S 20:29:40 22° SE 20:32:19 10° E visible
15 May -2.3 22:03:08 10° WSW 22:06:18 38° NNW 22:09:30 10° NE visible
15 May -0.3 23:42:28 10° NW 23:43:51 12° NNW 23:45:15 10° N visible
16 May -0.1 01:21:23 10° N 01:21:54 10° N 01:22:27 10° NNE visible
16 May -1.4 02:56:48 10° NNW 02:59:40 25° NNE 03:02:31 10° E visible
16 May -3.4 04:33:22 10° WNW 04:36:36 41° SW 04:39:47 10° SSE visible
16 May -3.3 21:15:29 10° WSW 21:18:49 64° NW 21:22:10 10° NE visible
16 May -0.5 22:54:10 10° NW 22:56:10 15° NNW 22:58:09 10° NNE visible
17 May -0.9 02:09:37 10° NNW 02:12:04 18° NNE 02:14:30 10° ENE visible
17 May -3.9 03:45:50 10° NW 03:49:13 77° SW 03:52:34 10° SE visible
17 May -3.8 20:28:03 10° SW 20:31:23 72° SE 20:34:44 10° NE visible
17 May -0.8 22:06:02 10° WNW 22:08:30 19° NNW 22:11:00 10° NNE visible
